Syracuse, NY

3:56 AM EDT on September 23, 2019 (GMT -0400)
Syracuse Hancock International

Weather History for KSYR - August, 2019

Change the Weather History Date:

Sunday, August 25, 2019

  Actual Average Record
Temperature  
Mean Temperature 64 °F 69 °F  
Max Temperature 77 °F 79 °F 97 °F (1948)
Min Temperature 52 °F 58 °F 38 °F (1940)
Degree Days  
Heating Degree Days 0 1  
Month to date heating degree days 3 12  
Since 1 June heating degree days 50 81  
Since 1 July heating degree days 3 20  
Cooling Degree Days 0 5  
Month to date cooling degree days 150 141  
Year to date cooling degree days 560 487  
Since 1 June cooling degree days 547 457  
Growing Degree Days 14 (Base 50)    
Moisture  
Dew Point 53 °F    
Average Humidity 71    
Maximum Humidity 96    
Minimum Humidity 40    
Precipitation  
Precipitation 0.00 in 0.11 in 1.25 in (1998)
Month to date precipitation 4.12 2.89  
Year to date precipitation 29.56 23.91  
Snow  
Snow 0.00 in 0.00 in 0.00 in (2002)
Month to date snowfall 0.0 0.0  
Since 1 June snowfall T 0.0  
Since 1 July snowfall T 0.0  
Snow Depth 0.00 in    
Sea Level Pressure  
Sea Level Pressure 30.27 in    
Wind  
Wind Speed 3 mph ()    
Max Wind Speed 14 mph    
Max Gust Speed 20 mph    
Visibility 10.0 miles    
Events Fog    
T = Trace of Precipitation, MM = Missing Value Source: Averaged Metar Reports

Daily Weather History Graph

Daily Weather History Graph

Search for Another Location

Airport or City:

Astronomy

Aug. 25, 2019 Rise Set
Actual Time 6:20 AM EDT 7:51 PM EDT
Civil Twilight 5:50 AM EDT 8:21 PM EDT
Nautical Twilight 5:14 AM EDT 8:57 PM EDT
Astronomical Twilight 4:36 AM EDT 9:35 PM EDT
Moon 12:49 AM EDT (8/25) 4:15 PM EDT (8/25)
Length of Visible Light 14h 30m
Length of Day
13h 30m
Waning Crescent, 29% of the Moon is Illuminated
Aug 25
Waning Crescent
Aug 30
New
Sep 5
First Quarter
Sep 14
Full
Sep 21
Last Quarter

Hourly Weather History & Observations

Time (EDT) Temp. Dew Point Humidity Pressure Visibility Wind Dir Wind Speed Gust Speed Precip Events Conditions
12:54 AM 57.9 °F 54.0 °F 87% 30.29 in 10.0 mi Calm Calm - N/A   Clear
1:54 AM 57.0 °F 53.1 °F 87% 30.28 in 10.0 mi Calm Calm - N/A   Clear
2:54 AM 55.0 °F 52.0 °F 89% 30.28 in 10.0 mi SE 3.5 mph - N/A   Partly Cloudy
3:54 AM 55.0 °F 52.0 °F 89% 30.28 in 10.0 mi ENE 3.5 mph - N/A   Partly Cloudy
4:54 AM 53.1 °F 51.1 °F 93% 30.29 in 10.0 mi East 3.5 mph - N/A   Partly Cloudy
5:54 AM 52.0 °F 50.0 °F 93% 30.30 in 10.0 mi East 3.5 mph - N/A   Partly Cloudy
6:54 AM 53.1 °F 50.0 °F 89% 30.32 in 10.0 mi Calm Calm - N/A Fog Patches of Fog
7:54 AM 55.9 °F 53.1 °F 90% 30.34 in 10.0 mi East 5.8 mph - N/A   Partly Cloudy
8:54 AM 60.1 °F 55.0 °F 83% 30.33 in 10.0 mi ESE 4.6 mph - N/A   Partly Cloudy
9:54 AM 64.9 °F 55.9 °F 73% 30.33 in 10.0 mi ESE 3.5 mph - N/A   Partly Cloudy
10:54 AM 69.1 °F 55.9 °F 63% 30.32 in 10.0 mi Variable 4.6 mph - N/A   Partly Cloudy
11:54 AM 71.1 °F 57.0 °F 61% 30.31 in 10.0 mi ESE 3.5 mph - N/A   Scattered Clouds
12:54 PM 71.1 °F 57.9 °F 63% 30.29 in 10.0 mi North 4.6 mph - N/A   Mostly Cloudy
1:54 PM 73.0 °F 57.0 °F 57% 30.27 in 10.0 mi NE 6.9 mph - N/A   Mostly Cloudy
2:54 PM 75.9 °F 55.9 °F 50% 30.25 in 10.0 mi East 5.8 mph - N/A   Scattered Clouds
3:54 PM 75.9 °F 53.1 °F 45% 30.24 in 10.0 mi ESE 11.5 mph - N/A   Scattered Clouds
4:54 PM 77.0 °F 52.0 °F 42% 30.23 in 10.0 mi East 9.2 mph - N/A   Scattered Clouds
5:54 PM 75.0 °F 52.0 °F 44% 30.22 in 10.0 mi East 9.2 mph - N/A   Partly Cloudy
6:54 PM 73.0 °F 51.1 °F 46% 30.22 in 10.0 mi East 5.8 mph - N/A   Partly Cloudy
7:54 PM 68.0 °F 53.1 °F 59% 30.23 in 10.0 mi East 5.8 mph - N/A   Partly Cloudy
8:54 PM 63.0 °F 53.1 °F 70% 30.24 in 10.0 mi East 3.5 mph - N/A   Partly Cloudy
9:54 PM 64.0 °F 53.1 °F 67% 30.24 in 10.0 mi East 4.6 mph - N/A   Partly Cloudy
10:54 PM 61.0 °F 53.1 °F 75% 30.24 in 10.0 mi East 4.6 mph - N/A   Partly Cloudy
11:54 PM 60.1 °F 53.1 °F 78% 30.24 in 10.0 mi East 3.5 mph - N/A   Partly Cloudy